Temperature
16 16 16 16 16 15 16 16 16 16 16 16 17 17 17 17 17 17 17 17 17 17 17 17 17 17 17 17 17 17 17 17 17 17 18 18 18 18 18 18 18 18 18
16 16 16 16 15 15 16 16 16 16 16 16 16 16 16 16 16 16 16 16 16 16 16 17 17 17 17 17 17 17 17 17 17 17 17 18 18 18 18 18 18 18 18
16 16 16 15 15 15 15 16 16 16 16 16 16 16 16 16 16 16 16 16 16 16 16 16 17 17 17 17 17 17 17 17 17 17 17 17 17 18 18 18 17 18 18
16 16 16 16 15 15 15 15 16 16 16 16 16 16 16 16 16 16 16 16 16 16 16 16 16 16 17 17 17 17 17 17 17 17 17 17 17 18 18 18 18 17 17
16 16 16 15 15 15 15 15 15 16 16 16 16 16 16 16 16 16 16 16 16 16 16 16 16 16 16 16 16 17 17 17 17 17 17 17 17 17 17 17 18 17 17
15 15 15 15 15 15 15 15 15 15 16 16 16 16 16 16 16 16 16 16 16 16 16 16 16 16 16 16 16 17 17 17 17 17 17 17 17 17 17 17 17 17 17
15 15 15 15 15 15 15 15 15 15 16 16 16 16 16 16 16 16 16 16 16 16 16 16 16 16 16 16 16 16 16 16 17 17 17 17 17 17 17 17 17 17 17
15 15 15 15 15 15 15 15 15 15 15 15 16 16 16 16 16 16 16 16 16 16 16 16 16 16 16 16 16 16 16 16 16 17 17 17 17 17 17 17 17 17 17
15 15 15 15 15 15 15 15 15 15 15 15 15 16 15 15 16 16 16 16 16 16 15 15 16 16 15 16 16 16 16 16 16 17 17 17 17 17 17 17 17 17 17
15 15 15 15 15 15 15 15 15 15 15 15 15 15 15 16 16 15 15 15 15 15 15 15 15 15 15 15 16 16 16 16 16 16 17 17 17 17 17 17 17 17 17
16 15 15 15 15 15 15 15 15 15 15 15 15 15 15 15 16 15 15 15 15 15 15 15 15 15 15 15 15 15 16 16 16 16 16 16 17 17 17 17 17 17 17
16 16 15 15 15 15 15 15 15 15 15 15 15 15 15 15 15 15 15 15 15 15 15 15 15 15 15 15 15 15 15 16 16 16 16 16 16 16 16 16 16 16 16
16 16 15 15 15 15 15 15 15 15 15 15 15 14 14 14 14 14 14 14 15 15 15 15 15 15 15 15 15 15 15 15 15 16 16 16 16 16 16 16 16 16 16
16 16 16 15 15 15 15 15 15 15 15 14 14 14 14 14 14 14 14 14 14 14 14 14 14 14 15 15 15 15 15 15 15 15 15 16 16 16 16 16 16 16 16
16 16 16 16 15 15 15 15 15 15 15 15 14 14 14 14 14 14 14 14 14 14 14 14 14 14 14 14 14 14 15 15 15 15 15 15 16 16 16 16 16 16 16
16 16 16 16 16 15 15 15 15 15 15 15 14 14 14 14 14 14 14 14 14 14 13 13 13 13 14 14 14 14 14 14 15 15 15 15 15 15 16 16 16 16 16
16 16 16 16 15 15 15 15 15 14 14 14 14 14 14 14 14 14 14 14 14 14 13 13 13 13 13 13 13 14 14 14 14 14 14 15 15 15 15 15 15 16 16
16 16 16 15 15 15 15 15 15 14 14 14 14 14 14 14 14 14 13 13 13 13 13 13 13 13 13 13 13 13 13 13 14 14 14 14 15 15 15 15 15 15 15
16 16 15 15 15 15 15 15 14 14 14 14 14 14 14 13 13 13 13 13 13 13 13 13 13 13 13 13 13 13 13 13 13 13 13 14 14 14 14 14 15 15 15
16 15 15 15 15 15 15 15 14 14 14 14 14 13 13 13 13 13 13 13 13 13 12 12 12 12 12 12 12 12 13 13 13 13 13 13 14 14 14 14 14 14 14
15 15 15 15 15 15 15 15 14 14 14 13 13 13 13 13 13 13 13 13 12 12 12 12 12 12 12 12 12 12 12 12 13 13 13 13 13 13 13 13 14 14 14
15 15 15 15 15 15 14 14 14 14 13 13 13 13 13 13 13 12 12 12 12 12 12 11 11 11 11 11 11 11 11 11 12 12 12 12 12 12 12 13 13 13 13
15 15 14 14 14 14 14 14 14 14 13 13 12 12 12 12 12 12 12 12 12 12 11 11 11 11 11 11 11 11 11 11 11 11 11 11 12 12 12 12 12 12 13
15 15 14 14 14 14 14 14 13 13 13 13 12 12 12 12 12 12 12 12 12 11 11 11 11 11 11 11 10 10 10 10 10 11 10 10 11 11 11 11 11 12 12
15 14 14 14 14 14 13 13 13 13 13 12 12 12 12 12 12 12 12 11 11 11 11 11 11 11 11 10 10 10 10 10 10 10 10 10 10 10 10 11 11 11 11
14 14 14 13 13 13 13 13 13 12 12 12 12 11 11 11 11 11 11 11 11 11 10 10 10 10 10 10 10 10 9 9 9 9 9 9 9 9 9 9 10 10 10
Wind_Speed
2 2 3 4 5 6 4 3 3 4 4 5 5 6 5 6 8 9 9 9 9 8 7 7 7 7 7 6 6 6 6 6 6 6 6 6 6 6 7 7 7 7 8
4 4 3 4 4 5 5 4 4 3 3 3 4 5 5 6 6 7 8 8 8 8 7 7 7 8 8 7 7 7 7 6 6 6 7 7 8 7 7 7 7 8 9
8 5 4 3 5 7 6 5 6 4 4 4 4 4 4 5 5 6 6 7 8 8 8 7 7 8 8 8 8 8 7 7 6 6 6 8 8 8 8 8 8 8 10
10 6 3 4 7 8 5 3 5 4 5 4 3 4 4 4 5 6 6 7 6 7 7 7 7 7 7 8 8 8 8 7 6 5 6 7 8 8 8 8 8 8 10
12 7 4 5 8 5 4 6 5 4 4 4 2 4 4 4 4 5 4 6 6 7 7 7 7 7 7 8 8 9 8 8 7 6 6 7 7 8 8 7 7 8 10
11 9 5 7 7 4 5 5 5 4 4 3 4 4 3 4 4 5 5 5 6 7 7 6 6 6 6 8 8 8 8 8 8 7 7 7 7 7 7 7 8 9 10
9 7 4 4 4 5 6 6 5 5 5 4 4 3 3 4 4 4 4 4 5 6 6 6 6 6 6 7 8 9 9 8 8 8 8 7 6 7 8 8 9 10 10
10 8 5 4 4 5 6 6 5 5 4 4 3 2 3 4 4 4 4 5 6 5 5 7 7 7 8 7 8 9 9 8 7 7 7 6 6 7 8 9 10 10 10
8 8 8 5 4 5 5 6 6 5 4 4 4 3 3 1 2 3 5 5 5 5 4 5 9 9 10 9 9 10 9 8 7 6 6 6 5 5 6 7 7 8 8
6 7 7 6 5 5 6 7 7 5 5 4 4 4 3 2 1 2 4 4 5 6 6 5 7 9 11 10 10 10 10 9 7 7 6 6 5 4 4 5 5 6 7
5 6 6 5 5 4 5 5 6 6 5 5 4 4 4 4 4 3 2 3 4 4 4 4 5 7 9 10 10 10 9 8 7 6 6 6 5 4 3 3 3 4 6
3 4 5 5 5 4 5 4 4 6 5 6 5 5 4 4 4 3 2 2 2 2 3 3 4 4 7 9 9 10 9 7 6 6 6 5 5 4 2 1 1 3 5
3 3 4 4 4 4 5 5 4 5 5 5 6 5 4 4 3 3 3 2 2 1 2 3 3 5 7 7 7 9 7 7 6 5 5 4 4 4 3 1 0 1 4
4 4 4 5 5 5 5 5 4 5 5 6 6 5 4 5 5 4 3 3 3 3 3 3 3 5 7 6 6 6 5 6 6 5 4 4 3 3 3 2 2 1 2
3 4 4 5 5 5 5 5 5 6 6 6 6 6 5 5 5 4 4 3 3 2 2 3 3 3 5 5 5 5 4 4 5 5 4 4 3 3 3 3 2 2 3
4 3 3 5 4 3 5 6 5 4 4 4 4 5 6 5 5 4 4 4 3 2 2 2 2 2 4 6 6 6 5 3 3 3 3 3 3 4 4 4 4 3 4
3 3 3 4 4 4 5 5 4 5 5 5 5 6 6 5 5 5 4 5 5 3 2 3 3 3 3 4 5 7 5 3 2 3 3 4 4 4 5 5 5 5 6
2 4 4 4 5 5 5 4 4 4 5 5 6 6 6 6 6 5 5 5 4 4 3 3 4 4 4 4 4 4 6 6 5 4 4 5 4 5 6 7 7 7 7
2 4 4 3 5 5 4 3 3 3 4 4 5 6 6 6 6 5 5 5 4 5 3 2 3 3 3 4 4 5 5 5 7 6 5 5 6 7 8 9 9 9 8
3 3 4 4 4 5 4 4 4 4 4 4 5 5 6 6 6 6 6 6 5 5 4 3 3 3 3 4 4 4 5 5 5 6 6 6 7 8 10 10 10 10 10
3 3 4 4 5 5 6 7 6 4 4 4 4 4 5 6 6 6 5 5 6 4 4 4 4 3 4 4 4 4 5 5 5 4 4 5 6 6 8 9 10 11 12
4 4 4 5 6 5 7 9 8 6 4 3 3 3 4 4 5 6 6 5 5 4 4 4 4 4 4 4 3 5 4 5 5 4 4 6 4 4 6 7 9 11 13
4 4 4 5 5 5 6 7 8 5 4 4 4 3 3 5 5 4 6 6 4 4 4 3 3 5 4 4 5 5 5 5 5 5 5 6 5 5 6 9 11 13 12
4 4 4 4 4 4 4 5 7 4 3 3 3 4 4 4 5 6 6 5 4 3 3 2 2 4 4 4 4 5 6 6 6 5 4 5 5 5 6 9 12 13 13
4 4 3 4 4 3 3 3 4 3 2 2 2 4 4 5 6 8 6 6 6 5 6 7 9 9 11 11 8 4 5 4 6 6 3 3 5 6 6 5 10 12 13
4 4 3 3 4 4 3 2 2 2 3 2 2 2 4 4 5 7 5 5 6 6 7 7 7 9 9 10 9 4 3 4 5 5 4 4 5 5 6 5 4 9 12
Wind_Direction
35 16 60 29 25 17 10 342 354 9 12 9 24 41 44 51 74 93 103 101 96 87 76 65 52 47 50 54 60 62 66 58 47 41 51 70 86 89 94 94 93 96 101
45 18 40 36 24 19 12 1 10 8 10 23 30 32 43 51 64 92 112 110 106 97 84 73 60 53 52 54 57 60 65 58 53 50 61 81 85 89 94 95 93 94 101
51 35 21 26 17 20 22 18 13 10 24 33 37 40 48 44 57 69 101 110 108 100 87 78 72 63 56 55 54 57 57 55 50 56 72 84 87 90 91 91 93 96 102
53 39 19 22 30 24 16 28 18 21 23 30 38 36 46 45 47 63 73 81 91 97 92 84 80 74 65 59 55 54 53 51 46 62 83 91 92 94 95 94 95 100 108
41 42 24 28 35 30 19 30 27 22 22 20 50 68 49 49 41 53 63 75 77 94 95 90 84 77 71 62 59 57 54 52 51 65 82 92 92 97 100 100 106 108 114
36 30 37 34 25 30 31 35 22 21 18 12 44 67 64 57 48 46 48 58 64 77 82 92 95 86 80 68 61 58 52 51 54 64 74 81 90 100 103 104 114 120 120
34 40 37 36 29 33 34 37 20 20 21 26 43 44 44 52 58 62 47 45 49 56 72 78 79 80 84 75 64 62 54 50 57 59 68 75 85 91 100 110 118 124 125
27 31 32 34 46 42 30 34 36 16 10 34 42 53 49 25 17 43 53 55 42 34 45 57 65 70 78 83 70 62 57 54 57 58 66 74 80 86 93 105 116 120 127
40 27 20 25 41 49 39 37 34 36 20 18 42 57 74 47 355 8 44 53 42 36 32 43 53 58 68 78 69 57 53 51 56 60 63 71 78 83 92 102 115 123 125
57 38 27 26 40 44 39 34 31 28 35 20 14 25 51 93 79 25 16 32 39 42 30 39 49 51 59 71 68 55 50 48 51 58 60 63 74 84 97 100 113 131 139
68 48 34 35 49 49 53 49 38 30 35 31 28 18 15 22 34 71 42 11 21 31 35 41 51 49 50 63 64 50 46 44 46 52 53 53 58 68 92 111 123 150 162
79 60 42 37 51 49 47 44 49 48 39 34 33 34 38 38 20 38 47 33 29 12 34 44 46 47 51 57 55 42 39 37 42 49 47 41 41 46 61 103 160 178 184
86 70 55 46 47 46 44 37 44 53 49 47 46 32 30 40 38 42 48 25 16 356 36 38 32 50 44 59 49 31 30 28 33 37 39 35 29 27 22 17 318 190 179
86 84 67 61 48 43 50 38 39 42 45 45 47 41 35 33 38 45 44 37 24 14 22 34 21 35 35 46 36 27 25 21 20 14 14 12 14 9 360 332 277 220 205
95 84 88 82 61 44 44 41 47 38 44 42 37 36 36 32 35 31 33 41 56 33 5 15 14 5 22 35 26 18 14 4 357 1 3 358 348 338 325 320 298 243 237
88 99 100 107 98 74 65 51 43 31 46 55 56 47 39 33 25 24 26 21 34 54 21 351 351 350 9 19 15 4 359 348 342 332 334 334 325 319 305 299 290 273 262
123 106 77 91 97 83 78 63 46 37 35 43 47 55 46 40 27 20 25 23 22 33 31 343 357 354 11 8 357 353 348 338 297 294 303 317 307 304 298 288 282 272 265
104 107 84 73 80 76 75 71 52 44 46 45 47 52 44 40 30 24 23 21 18 18 30 354 343 351 357 348 344 339 343 348 343 306 289 290 299 298 291 285 275 269 266
85 100 102 88 82 77 75 74 67 48 59 59 55 52 46 43 32 19 21 21 10 10 7 358 331 335 340 344 351 341 343 342 336 320 289 283 291 292 288 282 277 268 261
86 78 93 86 78 71 50 38 46 45 48 63 71 65 54 52 38 17 19 13 8 2 353 352 336 333 341 342 1 349 340 337 328 327 328 316 301 295 288 285 279 273 264
94 77 80 80 72 65 45 35 19 25 36 47 66 77 77 69 55 40 25 8 4 359 352 352 344 346 349 354 348 337 336 326 320 326 332 318 306 292 286 283 280 276 271
77 76 72 74 68 63 52 41 22 3 12 24 51 75 98 80 54 32 15 6 5 5 359 352 342 344 337 340 342 335 335 338 323 319 327 309 304 296 287 283 286 283 278
92 83 78 84 82 73 57 39 19 357 360 14 24 38 50 62 51 20 359 352 340 340 341 335 343 334 332 335 337 332 326 318 298 298 321 307 305 300 299 303 299 288 284
124 113 105 105 102 85 67 37 6 347 352 9 23 38 51 56 41 30 3 344 330 327 310 329 313 308 316 312 312 308 300 301 298 300 311 298 305 305 309 307 300 289 283
135 133 129 129 125 112 99 48 13 338 333 349 38 47 51 60 38 25 6 344 338 331 330 329 319 309 305 301 300 312 313 316 308 301 304 303 308 310 302 294 297 301 297
141 138 143 155 148 138 138 102 34 346 336 351 38 66 63 64 35 18 2 346 337 331 334 323 311 303 296 293 290 264 270 298 306 306 313 322 308 317 306 293 302 305 300
Height
1544 1543 1543 1542 1541 1540 1539 1539 1539 1538 1539 1539 1540 1540 1540 1541 1541 1541 1542 1542 1542 1542 1541 1541 1540 1540 1539 1539 1538 1538 1537 1536 1534 1531 1527 1526 1529 1534 1537 1539 1540 1541 1542
1545 1545 1544 1543 1542 1541 1540 1540 1540 1540 1540 1540 1540 1541 1541 1542 1542 1542 1543 1543 1543 1542 1542 1542 1541 1541 1540 1539 1539 1539 1538 1536 1535 1532 1529 1529 1531 1535 1538 1540 1541 1543 1543
1547 1546 1545 1544 1543 1542 1542 1541 1540 1540 1541 1541 1542 1542 1542 1543 1543 1543 1544 1544 1544 1543 1543 1543 1542 1542 1541 1541 1540 1539 1539 1537 1535 1533 1532 1533 1535 1537 1539 1541 1542 1544 1545
1548 1547 1546 1546 1545 1544 1543 1542 1541 1541 1542 1542 1543 1543 1544 1544 1545 1545 1545 1545 1545 1545 1544 1544 1544 1543 1543 1542 1541 1541 1540 1538 1535 1533 1533 1535 1537 1539 1540 1542 1543 1545 1547
1550 1549 1548 1547 1546 1545 1544 1543 1543 1543 1543 1543 1544 1544 1545 1545 1546 1546 1546 1546 1546 1546 1545 1545 1545 1545 1544 1544 1543 1542 1541 1539 1537 1535 1535 1537 1539 1540 1541 1541 1542 1545 1548
1551 1551 1550 1549 1548 1547 1546 1545 1545 1545 1545 1545 1545 1546 1547 1547 1548 1548 1548 1548 1548 1548 1547 1547 1546 1546 1546 1545 1544 1544 1543 1542 1540 1538 1539 1540 1541 1542 1541 1539 1541 1544 1548
1553 1552 1552 1551 1550 1549 1548 1547 1547 1547 1546 1546 1547 1547 1549 1549 1549 1550 1550 1550 1550 1549 1549 1549 1548 1548 1547 1547 1546 1546 1545 1544 1543 1542 1543 1543 1544 1543 1541 1540 1542 1545 1550
1554 1554 1553 1553 1552 1551 1550 1550 1549 1549 1549 1548 1548 1549 1550 1552 1551 1552 1552 1551 1551 1551 1551 1550 1550 1549 1549 1548 1548 1548 1547 1547 1546 1546 1546 1546 1547 1546 1545 1544 1546 1549 1552
1556 1555 1555 1555 1554 1553 1552 1552 1551 1551 1551 1551 1551 1551 1552 1553 1553 1554 1553 1553 1553 1553 1552 1552 1552 1551 1550 1550 1550 1549 1549 1548 1548 1548 1548 1549 1549 1549 1549 1549 1550 1552 1554
1558 1557 1556 1556 1556 1555 1554 1554 1553 1553 1553 1553 1553 1553 1554 1554 1554 1555 1555 1555 1555 1554 1554 1554 1553 1553 1552 1551 1551 1551 1550 1550 1550 1550 1550 1550 1550 1551 1552 1552 1553 1554 1556
1560 1559 1558 1558 1557 1557 1556 1556 1556 1555 1555 1555 1555 1555 1555 1555 1555 1555 1556 1556 1556 1556 1556 1555 1555 1554 1554 1553 1553 1552 1552 1551 1551 1551 1551 1552 1552 1552 1553 1554 1555 1556 1557
1561 1560 1560 1560 1559 1559 1558 1558 1558 1557 1557 1557 1557 1557 1556 1556 1556 1556 1557 1557 1557 1557 1557 1557 1556 1555 1555 1554 1554 1553 1553 1553 1552 1552 1552 1552 1553 1553 1554 1554 1555 1556 1557
1562 1562 1562 1561 1561 1560 1560 1560 1560 1559 1559 1559 1559 1559 1559 1558 1558 1558 1558 1558 1558 1558 1558 1558 1557 1557 1556 1555 1555 1554 1553 1553 1553 1553 1553 1553 1553 1554 1554 1554 1555 1556 1557
1563 1563 1563 1563 1562 1562 1562 1562 1561 1561 1561 1561 1560 1560 1560 1560 1560 1559 1559 1559 1558 1559 1559 1559 1558 1557 1556 1556 1555 1554 1554 1553 1553 1553 1553 1553 1553 1553 1554 1554 1554 1555 1556
1564 1564 1564 1564 1563 1563 1563 1563 1563 1562 1562 1562 1562 1562 1561 1561 1561 1560 1560 1560 1560 1559 1559 1559 1558 1558 1557 1556 1555 1554 1553 1553 1553 1552 1552 1552 1553 1553 1553 1553 1553 1554 1555
1565 1565 1565 1565 1565 1564 1564 1564 1564 1564 1564 1563 1563 1563 1562 1562 1562 1561 1561 1560 1560 1560 1560 1560 1559 1558 1557 1556 1555 1554 1553 1552 1552 1552 1552 1552 1552 1552 1552 1552 1552 1552 1553
1566 1566 1566 1566 1566 1566 1566 1565 1565 1565 1565 1565 1564 1564 1563 1563 1562 1562 1561 1561 1561 1560 1559 1559 1559 1558 1557 1555 1554 1553 1552 1552 1551 1551 1551 1550 1550 1550 1550 1550 1550 1550 1550
1566 1566 1567 1567 1567 1567 1567 1567 1566 1566 1566 1566 1565 1565 1564 1564 1563 1562 1562 1561 1561 1560 1560 1558 1558 1557 1556 1555 1553 1552 1552 1551 1550 1549 1549 1549 1548 1548 1547 1547 1547 1547 1548
1566 1567 1567 1567 1567 1567 1567 1567 1567 1567 1567 1567 1566 1565 1565 1564 1563 1563 1562 1561 1560 1560 1559 1558 1557 1556 1555 1554 1552 1551 1550 1549 1549 1548 1547 1547 1546 1545 1545 1545 1544 1544 1544
1566 1566 1567 1567 1567 1568 1568 1568 1568 1568 1568 1567 1567 1566 1565 1564 1563 1562 1562 1561 1560 1559 1558 1557 1556 1555 1554 1553 1551 1550 1548 1547 1546 1546 1545 1544 1543 1543 1542 1541 1541 1541 1540
1565 1565 1566 1567 1567 1567 1567 1568 1568 1568 1568 1567 1567 1566 1565 1564 1563 1562 1561 1560 1559 1558 1557 1556 1555 1554 1552 1551 1549 1548 1546 1545 1544 1543 1542 1541 1540 1539 1539 1538 1537 1537 1536
1563 1564 1565 1565 1566 1566 1567 1567 1567 1567 1567 1567 1566 1566 1565 1564 1563 1562 1561 1560 1559 1557 1556 1555 1553 1552 1551 1549 1548 1546 1545 1543 1541 1541 1539 1537 1537 1536 1535 1534 1534 1533 1532
1562 1563 1564 1564 1565 1565 1566 1566 1566 1566 1566 1566 1566 1565 1564 1563 1562 1561 1560 1558 1557 1556 1555 1554 1552 1551 1549 1547 1546 1544 1543 1541 1539 1538 1536 1534 1533 1532 1531 1530 1529 1528 1527
1560 1561 1562 1562 1563 1564 1564 1565 1565 1565 1565 1565 1565 1564 1563 1562 1561 1560 1558 1557 1556 1554 1553 1552 1551 1549 1547 1546 1544 1542 1540 1538 1536 1535 1534 1531 1529 1527 1526 1525 1524 1523 1522
1558 1559 1560 1561 1562 1562 1563 1563 1563 1563 1563 1563 1563 1563 1562 1561 1559 1558 1556 1555 1553 1552 1551 1549 1548 1546 1545 1543 1541 1539 1537 1535 1532 1531 1530 1528 1525 1522 1521 1519 1519 1518 1516
1557 1558 1559 1559 1560 1561 1561 1562 1562 1562 1562 1561 1561 1561 1560 1559 1558 1556 1554 1552 1551 1549 1548 1546 1545 1543 1541 1540 1538 1537 1535 1532 1529 1527 1526 1524 1521 1518 1514 1513 1513 1511 1510